TimePST,TemperatureF,Dew PointF,Humidity,Sea Level PressureIn,VisibilityMPH,Wind Direction,Wind SpeedMPH,Gust SpeedMPH,PrecipitationIn,Events,Conditions,WindDirDegrees,DateUTC
12:32 AM,41.0,37.4,87,30.19,5.0,East,3.5,-,0.00,,Overcast,100,2013-02-27 08:32:00
12:53 AM,39.9,36.0,86,30.20,5.0,East,3.5,-,0.00,,Overcast,80,2013-02-27 08:53:00
1:39 AM,39.2,37.4,93,30.21,2.0,West,3.5,-,0.00,Rain,Rain,270,2013-02-27 09:39:00
1:53 AM,39.9,36.0,86,30.22,4.0,East,3.5,-,0.01,Rain,Light Rain,100,2013-02-27 09:53:00
2:10 AM,39.2,35.6,87,30.20,5.0,East,4.6,-,0.00,,Overcast,80,2013-02-27 10:10:00
2:53 AM,39.9,36.0,86,30.21,5.0,Calm,Calm,-,0.00,,Overcast,0,2013-02-27 10:53:00
3:07 AM,39.2,35.6,87,30.21,5.0,Calm,Calm,-,N/A,,Overcast,0,2013-02-27 11:07:00
3:51 AM,39.2,35.6,87,30.22,6.0,ENE,4.6,-,N/A,,Overcast,70,2013-02-27 11:51:00
3:53 AM,39.2,35.6,87,30.22,6.0,East,4.6,-,N/A,,Overcast,80,2013-02-27 11:53:00
4:10 AM,39.2,35.6,87,30.23,6.0,ENE,3.5,-,N/A,,Overcast,60,2013-02-27 12:10:00
4:43 AM,37.4,33.8,87,30.24,6.0,ENE,3.5,-,N/A,,Scattered Clouds,60,2013-02-27 12:43:00
4:53 AM,37.9,34.0,86,30.25,6.0,ENE,4.6,-,N/A,,Partly Cloudy,70,2013-02-27 12:53:00
5:53 AM,37.9,35.1,89,30.26,6.0,Calm,Calm,-,N/A,,Partly Cloudy,0,2013-02-27 13:53:00
6:53 AM,37.0,34.0,89,30.27,5.0,ENE,4.6,-,N/A,,Scattered Clouds,60,2013-02-27 14:53:00
7:53 AM,37.9,34.0,86,30.26,4.0,East,5.8,-,N/A,,Scattered Clouds,80,2013-02-27 15:53:00
8:13 AM,39.2,35.6,87,30.25,4.0,East,5.8,-,N/A,,Mostly Cloudy,80,2013-02-27 16:13:00
8:53 AM,41.0,37.0,86,30.25,4.0,East,5.8,-,N/A,,Scattered Clouds,90,2013-02-27 16:53:00
9:53 AM,43.0,37.9,82,30.28,4.0,ENE,3.5,-,N/A,,Haze,60,2013-02-27 17:53:00
10:53 AM,44.1,39.0,82,30.27,4.0,East,5.8,-,N/A,,Haze,90,2013-02-27 18:53:00
11:53 AM,48.9,39.0,69,30.28,5.0,Calm,Calm,-,N/A,,Haze,0,2013-02-27 19:53:00
12:53 PM,48.9,37.0,64,30.26,4.0,South,4.6,-,N/A,,Haze,190,2013-02-27 20:53:00
1:53 PM,48.9,35.1,59,30.27,3.0,SSW,3.5,-,N/A,,Haze,210,2013-02-27 21:53:00
2:53 PM,48.0,37.0,66,30.25,3.0,Calm,Calm,-,N/A,,Haze,0,2013-02-27 22:53:00
3:29 PM,46.4,35.6,66,30.26,1.8,SSW,8.1,19.6,0.00,Rain,Light Rain,210,2013-02-27 23:29:00
3:44 PM,44.6,35.6,71,30.26,2.0,Calm,Calm,-,0.01,Rain,Light Rain,0,2013-02-27 23:44:00
3:51 PM,44.6,35.6,71,30.26,1.5,SSE,3.5,-,0.02,Rain,Light Rain,150,2013-02-27 23:51:00
3:53 PM,44.1,37.0,76,30.27,1.5,Calm,Calm,-,0.02,Rain,Light Rain,0,2013-02-27 23:53:00
4:10 PM,44.6,37.4,76,30.26,2.0,NE,5.8,-,0.01,Rain,Light Rain,50,2013-02-28 00:10:00
4:18 PM,44.6,39.2,81,30.24,3.0,ENE,6.9,-,0.01,Rain,Light Rain,60,2013-02-28 00:18:00
4:53 PM,44.1,37.9,79,30.25,4.0,NNE,5.8,-,0.01,,Haze,20,2013-02-28 00:53:00
5:53 PM,43.0,37.9,82,30.23,4.0,ENE,4.6,-,N/A,,Haze,70,2013-02-28 01:53:00
6:53 PM,43.0,37.9,82,30.24,6.0,East,4.6,-,N/A,,Haze,80,2013-02-28 02:53:00
7:53 PM,42.1,37.9,85,30.23,6.0,East,3.5,-,N/A,,Overcast,80,2013-02-28 03:53:00
8:13 PM,42.8,37.4,81,30.22,6.0,East,5.8,-,N/A,,Haze,90,2013-02-28 04:13:00
8:53 PM,42.1,37.9,85,30.23,6.0,East,5.8,-,N/A,,Overcast,80,2013-02-28 04:53:00
9:53 PM,42.8,37.4,81,30.22,7.0,ENE,6.9,-,N/A,,Overcast,70,2013-02-28 05:53:00
11:31 PM,42.8,37.4,81,30.21,7.0,ENE,8.1,-,N/A,,Overcast,70,2013-02-28 07:31:00
11:53 PM,42.1,37.0,82,30.21,7.0,East,6.9,-,N/A,,Overcast,90,2013-02-28 07:53:00